Погода Назимово

Погода Назимово : погода сейчас, прогноз погоды и архив. Всё, что Вы хотите узнать о погоде Назимово!

Поиск расширенной информации на нашем сайте:

Другие новости

Новости СМИ2

Главная страница сайта

Новости сайта

03.07.2017

Напоминаем, что на нашем специализированном сайте Метеоцентр.Азия вы можете получить высокодетализированные автоматические прогнозы погоды по пунктам России, СНГ и мира в авиационном формате (включающие направление и скорость ветра, видимость, явления погоды, количество и форму облачности, нижнюю и верхнюю границу облачности).


Погода Назимово - сегодня

Время (UTC), дата Ветер
(°,м/с) 
Видим.   Явления Облачность Т
(°С)
Тd
(°С)
f(%) Тe
(°С)
Pmin
(гПа)
dP
(гПа)
Po
(мм)
O2
(г/м3)
Тmin Tmax R s Состояние
почвы
06 16.08.17 340 (С) 20000 м    4/4 2000 м средняя 
[Ac trans]
+18.8 +6.1 43 +20  1019.2  -1.4  758  285           
09 16.08.17 070 (В) 20000 м    8/3 1000 м средняя 
[Cu hum|Ac trans]
+19.3 +7.4 46 +21  1017.8  1.4  757  284           
12 16.08.17 310 (СЗ) 20000 м    ясно 
+17.4 +8.7 57 +18  1017.2  0.6  757  285    +20.2       
15 16.08.17 тихо ()   н/о    ясно 
+11.4 +10.6 95 +13  1017.3  757  291           
18 16.08.17 тихо ()   н/о    ясно 
+7.7 +7.5 99 +8  1017.4  757  295           
21 16.08.17 тихо ()   н/о    9/9 2000 м средняя 
[Ac As]
+6.8 +6.8 100 +7  1017.2  -0.3  757  296           
00 17.08.17 170 (Ю) 20000 м    9/9 2000 м средняя 
[Ac trans]
+8.6 +8.4 99 +10  1017.1  757  294  +6.2        влажная 
03 17.08.17 120 (ЮВ) 20000 м    4/4 2000 м средняя 
[Ac trans]
+14.6 +10.8 78 +17  1016.3  -0.7  756  287           
06 17.08.17 120 (ЮВ) 20000 м    8/3 1000 м верхняя 
[Cu med, cong|Ci sp]
+20 +10.4 54 +22  1014.9  -1.2  755  282           
09 17.08.17 280 (З) 20000 м    6/5 1000 м верхняя 
[Cu hum|Ci fib]
+22.3 +9.3 43 +22  1013.8  -1.1  755  279           
12 17.08.17 210 (ЮЗ) 20000 м    8/3 1000 м верхняя 
[Sc diur, vesp|Ci fib]
+21.4 +11.3 53 +24  1013.4  -0.4  754  280    +22.7       
15 17.08.17 150 (ЮВ) н/о    9/0 верхняя 
[Ci fib]
+14.2 +11.6 84 +18  1014.4  0.8  755  287           
18 17.08.17 150 (ЮВ) н/о    ясно 
+11.4 +11 97 +14  1014.7  0.3  755  290           
21 17.08.17 160 (Ю) н/о    ясно 
+9.3 +8.3 93 +10  1014.3  -0.5  755  293           
00 18.08.17 130 (ЮВ) 20000 м    9/0 верхняя 
[Ci fib]
+11 +8.6 85 +11  1014.7  0.4  755  291  +9        влажная 
03 18.08.17 120 (ЮВ) 20000 м    9/9 2000 м средняя 
[Ac lent]
+15.2 +11.3 78 +18  1014.4  -0.2  755  286           
06 18.08.17 230 (ЮЗ) 20000 м    9/3 1000 м средняя 
[Cu med, cong|Ac lent]
+21.2 +10.4 50 +23  1013.8  -0.4  755  280           
09 18.08.17 270 (З) 20000 м    9/3 1000 м средняя 
[Cu med, cong|Ac lent]
+21.8 +11.4 52 +25  1013.5  -0.3  754  279           
12 18.08.17 340 (С) 20000 м    8/8 2000 м средняя 
[Ac trans]
+17 +14.6 86 +26  1014  0.4  755  283    +24       
15 18.08.17 230 (ЮЗ) н/о  в посл. час ливневой дождь  10/10 600 м кучево-дожд. 
[Cb cap]
+14.3 +13 92 +20  1014.5  0.4  755  286           
18 18.08.17 310 (СЗ) н/о  {ливн. осадки}  10/10 600 м кучево-дожд. 
[Cb cap]
+13.7 +12.6 93 +19  1014.1  -0.4  755  287           
21 18.08.17 300 (СЗ) н/о    10/10 600 м кучево-дожд. 
[Cb cap]
+13 +12.1 94 +18  1013.2  -0.9  754  288           
00 19.08.17 тихо ()   10 км  слаб. ливневой дождь  10/10 600 м кучево-дожд. 
[Cb cap]
+13.4 +13.8 100 +20  1013  -0.2  754  287  +13      влажная 
03 19.08.17 100 (В) 20000 м  {ливн. осадки}  10/10 600 м кучево-дожд. 
[Cb cap]
+14.4 +14 97 +23  1013.5  0.5  754  286           
06 19.08.17 110 (В) 20000 м  {ливн. осадки}  10/8 300 м кучево-дожд., средняя 
[Cb cap|Ac As]
+15.6 +14.2 91 +23  1012.6  -0.8  754  284           
Время (UTC), дата Ветер
(°,м/с) 
Видим.   Явления Облачность Т
(°С)
Тd
(°С)
f(%) Тe
(°С)
Pmin
(гПа)
dP
(гПа)
Po
(мм)
O2
(г/м3)
Тmin Tmax R s Состояние
почвы

Для получения пояснительной информации подведите курсор к названию столбца.

ПОГОДА Назимово - архив

Всё, что Вы хотите узнать о погоде Назимово - удобно и подробно!

Выберите нужную дату (начиная с 1 января 2015* года) и нажмите кнопку "Найти".
Будут отображены архивные сводки погоды по пункту Назимово, начиная с указанной даты.


Отображать данные в формате CSV (для использования в таблицах Excel)


Внимание! Наш архив погоды предназначен исключительно для личного некоммерческого использования в познавательных целях. Если Вам необходимы официальные справки о состоянии погоды (для производственных, юридических, коммерческих и т.п. целей), обращайтесь в органы Росгидромета.

*Примечание: данная дата относится к архиву по метеостанциям СССР (Россия, СНГ, Балтия).
Архив по метеостанциям Зарубежной Европы и Азии (кроме Китая) хранится 10 дней, по другим регионам земного шара (Китай, Африка, Америка, Австралия, Океания) - 1 день.

Назимово - район местоположения метеостанции


Название, широта, долгота, высота метеостанции:
Назимово 59.5°ш. 91°д. 67 м над ур. моря [Российская Федерация]

Дополнительная информация

В oтличие oт бoльшинства пoгoдных сайтoв мы публикуем пoдрoбную метеoинфoрмацию в детальнoм прoфессиoнальнoм фoрмате.

Характеристики температуры и влажнoсти вoздуха измеряются на высoте 2 м в тени вдали oт зданий и деревьев.
Скoрoсть ветра измеряется на высoте 10 м (на урoвне рoста челoвека скoрoсть ветра ниже в 1.5-2 раза). Если метеoстанция нахoдится в гoрoде или в лесу, тo скoрoсть ветра занижена на 2-4 м/с пo сравнению с oткрытым местoм. Скoрoсть ветра над акватoриями крупных рек и oзёр, а также на вершинах хoлмoв на 2-5 м/с выше, чем в oбычных услoвиях.
Атмoсфернoе давление в разных тoчках местнoсти мoжет значительнo oтличаться oт давления на метеoстанции, в зависимoсти oт услoвий рельефа (при пoдъёме на 10 м давление пoнижается примернo на 1 мм рт.ст.).